Tracking 19969 objects as of 13-Nov-2019
Live streaming from Space Station
objects crossing your sky now
Track the group of recently launched Starlink satellites

DMSP 5D-2 F6 DEB

Track DMSP 5D-2 F6 DEB now!
10-day predictions


NORAD ID: 40919
Int'l Code: 1982-118M
Perigee: 760.2 km
Apogee: 785.1 km
Inclination: 98.5 °
Period: 100.1 minutes
Semi major axis: 7143 km
RCS: Unknown
Launch date: December 21, 1982
Source: United States (US)
Launch site: AIR FORCE WESTERN TEST RANGE (AFWTR)

Note: This is SATELLITE DEBRIS
aabbcc
Your satellite tracking list
Your tracking list is empty




NASA's NSSDC Master Catalog

Two Line Element Set (TLE):
1 40919U 82118M   19316.32727266 +.00001277 +00000-0 +43691-3 0  9991
2 40919 098.5114 147.1256 0017464 034.3713 325.8600 14.37882570182372
Source of the keplerian elements: AFSPC